Home > Weather > Salinas > Past weeks

Flag for USA Past Weather in Salinas, California, USA — Yesterday and Last 2 Weeks

Now
53 °F

Overcast.


Feels Like: 52 °F
Forecast: 50 / 73 °F
Wind: 5 mph from South

Location: Salinas Municipal Airport

Current Time: May 27, 2016 at 7:19:30 AM

Latest Report: May 27, 2016 at 6:53 AM


Visibility: 10 mi

Pressure: 30.02 "Hg

Humidity: 77%

Dew Point: 46 °F

Location of SalinasLocation

Past Weather in Salinas — Graph

°F

Salinas Temperature Yesterday

Maximum temperature yesterday: 64 °F (at 2:53 PM)
Minimum temperature yesterday: 54 °F (at 5:53 AM)
Average temperature yesterday: 58 °F

High & Low Weather Summary for the Past Weeks

 TemperatureHumidityPressure
High78 °F (May 17, 11:53 AM)97% (May 18, 5:53 AM)30.19 "Hg (May 18, 5:53 AM)
Low49 °F (May 14, 6:53 AM)42% (May 22, 1:53 PM)29.85 "Hg (May 20, 3:00 AM)
Average59 °F70%30.03 "Hg
* Reported May 12 5:53 AM — May 27 5:53 AM, Salinas, Weather by CustomWeather, © 2016

Note: Actual official high and low records may vary slightly from our data, if they occured in-between our weather recording intervals... More about our weather records

Advertising

Salinas Weather History for the Previous 24 Hours

Scroll right to see more
 ConditionsComfort  
Time TempWeatherWind HumidityBarometerVisibility
5:53 AM
Fri, May 27
52 °FOvercast.5 mph80%30.01 "Hg10 mi
4:53 AM54 °FOvercast.6 mph77%30.01 "Hg9 mi
3:53 AM54 °FOvercast.5 mph77%30.02 "Hg9 mi
2:53 AM54 °FOvercast.8 mph80%30.03 "Hg9 mi
1:53 AM54 °FOvercast.6 mph80%30.05 "Hg8 mi
12:53 AM53 °FOvercast.5 mph83%30.06 "Hg8 mi
11:53 PM
Thu, May 26
54 °FPassing clouds.7 mph80%30.06 "Hg9 mi
10:53 PM55 °FClear.9 mph77%30.08 "Hg9 mi
9:53 PM55 °FMostly cloudy.13 mph77%30.08 "Hg9 mi
8:53 PM56 °FOvercast.9 mph75%30.07 "Hg9 mi
8:02 PM57 °FOvercast.9 mph72%30.05 "Hg9 mi
7:53 PM57 °FOvercast.9 mph72%30.07 "Hg9 mi
6:53 PM57 °FOvercast.12 mph74%30.09 "Hg9 mi
5:53 PM58 °FOvercast.9 mph72%30.09 "Hg10 mi
4:53 PM59 °FOvercast.14 mph69%30.11 "Hg10 mi
3:53 PM61 °FOvercast.15 mph67%30.11 "Hg10 mi
2:53 PM64 °FSunny.16 mph61%30.11 "Hg10 mi
1:53 PM63 °FPassing clouds.13 mph63%30.12 "Hg10 mi
12:53 PM63 °FScattered clouds.13 mph63%30.13 "Hg10 mi
11:53 AM62 °FPartly sunny.10 mph65%30.14 "Hg10 mi
10:53 AM59 °FOvercast.12 mph69%30.15 "Hg10 mi
9:53 AM58 °FOvercast.8 mph72%30.16 "Hg10 mi
8:53 AM57 °FOvercast.9 mph74%30.16 "Hg10 mi
7:53 AM55 °FOvercast.10 mph80%30.16 "Hg10 mi
Weather by CustomWeather, © 2016

See weather overviewHow to use our weather pages